Tracking 19176 objects as of 26-May-2018
HD Live streaming from Space Station
objects crossing your sky now

SL-12 R/B(AUX MOTOR)

Track SL-12 R/B(AUX MOTOR) now!
10-day predictions


NORAD ID: 36407
Int'l Code: 2010-007H
Perigee: 608.8 km
Apogee: 18,934.6 km
Inclination: 65.1 °
Period: 340.2 minutes
Semi major axis: 16142 km
RCS: 0.5885 m2 (medium)
Launch date: March 1, 2010
Source: Commonwealth of Independent States (former USSR) (CIS)
Launch site: TYURATAM MISSILE AND SPACE COMPLEX (TTMTR)

Note: This is a ROCKET BODY
aabbcc
Your satellite tracking list
Your tracking list is empty




NASA's NSSDC Master Catalog

Two Line Element Set (TLE):
1 36407U 10007H   18143.67712841 -.00001429  00000-0 -73502-2 0  9998
2 36407  65.0778 176.6095 5676208  45.8271 348.7953  4.23291745127174
Source of the keplerian elements: AFSPC